Location: Unspecified
(0.0000°N, 0.0000°E)
Time: 03:15:40
(UTC+00:00)

ISS - Pass Details

Date: 17 November 2019
Orbit: 412 x 421 km, 51.6° (Epoch: 12 November)

Event Time Altitude Azimuth Distance (km) Brightness Sun altitude
Exits shadow 04:51:10 - 354° (N) 2,239 -0.3 -12.7°
Reaches altitude 10° 04:53:37 10° 17° (NNE) 1,484 -1.0 -12.1°
Maximum altitude 04:55:37 15° 54° (NE) 1,218 -0.9 -11.6°
Drops below altitude 10° 04:57:37 10° 91° (E) 1,486 0.3 -11.2°
Sets 05:00:22 0° 116° (ESE) 2,349 2.2 -10.5°
